Location: Asheville, NC
(35.6000°N, 82.5500°W)
Time: 02:30:53

Vanguard 1 Rocket - Pass Details

Date: 11 March 2018
Orbit: 655 x 4222 km, 34.3° (Epoch: 15 March)

Event Time Altitude Azimuth Distance (km) Brightness Sun altitude
Rises 23:45:45 0° 283° (WNW) 5,885 11.8 -55.7°
Reaches altitude 10° 23:48:55 10° 281° (W) 5,246 11.4 -56.0°
Enters shadow 23:57:31 43° 267° (W) 4,031 10.4 -56.6°
Maximum altitude 00:06:12 67° 204° (SSW) 3,900 - -57.2°
Drops below altitude 10° 00:32:05 10° 128° (SE) 7,364 - -58.1°
Exits shadow 00:36:22 - 126° (SE) 8,041 12.0 -58.1°
Sets 00:37:40 0° 126° (SE) 8,247 12.1 -58.1°
